Regional Weather Roundup
Issued by NWS Midland/Odessa, TX

Home | Current Version | Previous Version | Text Only | Print | Product List | Glossary On
Versions: 1 2 3 4 5 6 7 8 9 10 11 12 13 14 15 16 17 18 19 20 21 22 23 24 25 26 27 28 29 30 31 32 33 34 35 36 37 38 39 40 41 42 43 44 45 46 47 48 49 50
000
ASUS44 KMAF 260810
RWRMAF
MIDLAND AREA WEATHER ROUNDUP
NATIONAL WEATHER SERVICE MIDLAND TX
200 AM CST SUN FEB 26 2017

...IN SOUTHWEST TEXAS AND SOUTHEAST NEW MEXICO...

CITY           SKY/WX    TMP DP  RH WIND       PRES   REMARKS
ALPINE         CLEAR     49  13  23 SW7       29.98F
ANDREWS        FAIR      46  30  52 S15G21    29.87S
ARTESIA        CLEAR     39  19  45 S10       29.86S WCI  32
BIG SPRING     CLEAR     44  30  57 SE14      29.90F WCI  38
CARLSBAD       CLEAR     36  19  50 CALM      29.85S
DRYDEN           N/A     46  30  53 N8        29.91F
FORT STOCKTON  CLEAR     48  31  51 S13       29.90S
GUAD PASS      CLEAR     45   4  18 SW21        N/A  WCI  37
HOBBS          CLEAR     37  25  60 S6        29.87S WCI  33
MARFA          CLOUDY    34   7  32 W6        29.98R WCI  29
MIDLAND AIRPK  CLEAR     50  31  47 S13G18    29.89S
MIDLAND INTL   CLEAR     49  29  46 S9        29.88F
ODESSA         CLEAR     50  28  42 S17       29.88F
PECOS          CLEAR     36  19  50 SW6       29.87F WCI  31
PRESIDIO       FAIR      55  11  17 N13       29.92R
SEMINOLE       CLEAR     40  29  64 S7        29.87S WCI  35
SNYDER         CLEAR     41  30  65 S8        29.89F WCI  35
WINK           CLEAR     43  28  55 SE10      29.86F WCI  37
$$
...OTHER STATIONS IN TEXAS...

CITY           SKY/WX    TMP DP  RH WIND       PRES   REMARKS
ABILENE        CLEAR     44  28  53 S18G24    29.93R WCI  36
AMARILLO       CLEAR     34  23  64 S16       29.85F WCI  24
AUSTIN         CLEAR     36  33  89 CALM      30.02F
BROWNSVILLE    CLEAR     67  63  87 SE5       29.97F
CORPUS CHRISTI MOCLDY    59  56  89 NE7       30.00F
DALLAS FTW     CLOUDY    43  27  53 SE6       30.02F WCI  39
DEL RIO        PTCLDY    51  37  58 SE10      29.96F
EL PASO        CLEAR     49   5  16 SW3       29.93F
HOUSTON INT    PTCLDY    48  35  60 SE3       30.06S
LUBBOCK        CLEAR     36  26  67 SE6       29.85F WCI  31
SAN ANGELO     CLEAR     48  31  51 S6        29.93F
SAN ANTONIO    PTCLDY    47  32  56 SE6       30.02F
WACO           CLEAR     37  31  78 NE3       30.04F
WICHITA FALLS  NOT AVBL
$$
...OTHER LOCATIONS IN NEW MEXICO...

CITY           SKY/WX    TMP DP  RH WIND       PRES   REMARKS
ALAMAGORDO     CLOUDY    48   9  20 S6        29.93F
ALBUQUERQUE    CLOUDY    40   6  24 W5        29.88F WCI  37
CANNON AFB     CLOUDY    30  24  77 N6        29.84R WCI  24
CLOVIS         CLEAR     28  19  69 S3        29.83S
HOLLOMAN AFB   CLOUDY    51   5  15 S7        29.95F
ROSWELL        CLEAR     42  17  36 S10         N/A  WCI  36
RUIDOSO        CLOUDY    41  -2  16 W17G26    29.92S WCI  32
SANTA FE       CLOUDY    23   5  46 W3        29.86R
TRUTH OR CONSE CLEAR     41   3  20 W6        29.90F WCI  37
TUCUMCARI      CLEAR     33  17  51 SW8       29.80F WCI  26
$$




USA.gov is the U.S. government's official web portal to all federal, state and local government web resources and services.